Regional Weather Roundup
Issued by NWS San Diego, CA

Home | Current Version | Previous Version | Text Only | Print | Product List | Glossary On
Versions: 1 2 3 4 5 6 7 8 9 10 11 12 13 14 15 16 17 18 19 20 21 22 23 24 25 26 27 28 29 30 31 32 33 34 35 36 37 38 39 40 41 42 43 44 45 46 47 48 49 50
000
ASUS46 KSGX 300810
RWRSGX

SAN DIEGO HOURLY WEATHER ROUNDUP
NATIONAL WEATHER SERVICE SAN DIEGO CA
1200 AM PST FRI JAN 30 2015

NOTE: "FAIR" INDICATES FEW OR NO CLOUDS BELOW 12,000 FEET WITH NO
SIGNIFICANT WEATHER AND/OR OBSTRUCTIONS TO VISIBILITY.

CAZ042-043-060-061-PZZ750-775-300900-

GREATER SAN DIEGO AREA

CITY           SKY/WX    TMP DP  RH WIND       PRES   REMARKS
LINDBERGH FLD  CLOUDY    62  56  80 N5        30.00F
NATIONAL CITY    N/A     60  57  88 CALM      29.99F
CHULA VISTA      N/A     59  57  92 CALM      29.92F
IMPERIAL BEACH CLOUDY    61  56  83 NE5       29.99F
BROWN FIELD    CLOUDY    57  55  93 E5        29.98F
MIRAMAR MCAS   CLOUDY    59  55  87 CALM      29.99S
MONTGOMERY FLD CLOUDY    60  56  86 N3        29.99F

$$

NORTH SAN DIEGO COUNTY

CITY           SKY/WX    TMP DP  RH WIND       PRES   REMARKS
CAMP PENDLETON CLOUDY    57  50  77 VRB3      29.98F
OCEANSIDE AP   CLOUDY    58  51  78 CALM      29.98F
OCEANSIDE HBR    N/A     62  54  75 N3        30.01F
VISTA            N/A     58  50  77 CALM      29.97F
CARLSBAD       CLOUDY    60  49  66 E3        29.99S
DEL MAR          N/A     60  55  82 CALM      30.01F
LA JOLLA SCRIP   N/A     60  57  89 CALM      29.96F
FALLBROOK        N/A     59  52  78 CALM      30.01F
ESCONDIDO        N/A     59  51  73 CALM      30.00F
SAN MARCOS       N/A     60  49  68 CALM      29.98S
POWAY            N/A     57  52  84 CALM      30.01F

$$

EAST SAN DIEGO COUNTY

CITY           SKY/WX    TMP DP  RH WIND       PRES   REMARKS
RAMONA         CLOUDY    52  51  97 CALM      30.00F
SANTEE LAKES     N/A     57  54  89 CALM      30.00F
LA MESA          N/A     60  53  80 CALM      29.93F
JAMUL            N/A     54  53  95 CALM      29.99F
DESCANSO N       N/A     47  43  84 CALM      29.89S
MT. LAGUNA OBS   N/A     40  34  80 E3        29.64S
CAMPO            N/A     50  46  86 N3        29.98F

$$

ORANGE COUNTY AND THE LOS ANGELES BASIN

CITY           SKY/WX    TMP DP  RH WIND       PRES   REMARKS
JOHN WAYNE AP  LGT RAIN  66  51  58 W6        30.00F
LAGUNA BEACH     N/A     59  55  86 CALM      29.96F
LAKE FOREST FR   N/A     60  45  57 CALM      29.90S
SANTA ANA        N/A     63  53  70 CALM      29.96F
HUNTINGTON BCH   N/A     61  55  83 CALM      30.03S
LOS ALAMITOS   FAIR      62  54  74 E7        30.01S
FULLERTON      CLOUDY    63  51  65 CALM      30.00F
LONG BEACH     CLOUDY    62  56  80 NW6       30.01F
L.A. AP        CLOUDY    62  50  64 E3        30.02S
L.A. DOWNTOWN  LGT RAIN  63  52  67 CALM      30.02S

$$

THE INLAND EMPIRE

CITY           SKY/WX    TMP DP  RH WIND       PRES   REMARKS
CORONA         CLOUDY    60  49  67 CALM      30.01F
CHINO          CLOUDY    61  50  67 W7        30.02F
ONTARIO        CLOUDY    61  47  59 W8        30.01F
RIVERSIDE AP   CLOUDY    61  46  57 VRB3      30.00F
RIV CYN CREST    N/A     61  53  73 CALM        N/A
MORENO VALLEY    N/A     60  47  62 CALM      29.20F
MARCH ARB      CLOUDY    57  45  64 W7        30.00F
HORSETHIEF CYN   N/A     59  42  52 W7        29.94F
PERRIS           N/A     58  46  64 SE1         N/A
MENIFEE          N/A     58  50  75 CALM      30.07F
HEMET EAST       N/A     56  39  53 CALM      30.01F
FRENCH VALLEY  CLOUDY    55  48  76 CALM      30.01S
TEMECULA         N/A     58  51  78 CALM      29.97F

$$

SAN BERNARDINO AND RIVERSIDE COUNTY MOUNTAINS

CITY           SKY/WX    TMP DP  RH WIND       PRES   REMARKS
BIG BEAR AP    CLOUDY    34  32  93 CALM      30.09F
PINE COVE        N/A     41  34  77 CALM      29.96F

$$

SOUTHERN DESERT INCLUDING THE COACHELLA VALLEY

CITY           SKY/WX    TMP DP  RH WIND       PRES   REMARKS
PALM SPRINGS   CLOUDY    65  44  46 CALM      29.99F
PALM DESERT      N/A     65  47  51 CALM      27.39S
THERMAL        CLOUDY    64  46  52 N6        29.94F
BLYTHE         CLOUDY    60  53  77 N7        29.96F
IMPERIAL AP    CLOUDY    60  49  66 NW3       29.94F
EL CENTRO NAS  CLOUDY    61  49  64 CALM      29.95F
YUMA AZ        CLOUDY    63  55  75 SE8       29.96F

$$

UPPER DESERT

CITY           SKY/WX    TMP DP  RH WIND       PRES   REMARKS
VICTORVILLE AP DRIZZLE   52  41  66 CALM      30.08S
HESPERIA         N/A     50  44  79 CALM      30.19F
APPLE VALLEY     N/A     52  41  67 CALM      30.12S
PALMDALE       CLOUDY    53  46  77 NW8       30.07F
LANCASTER      LGT RAIN  50  48  93 NW8       30.08F
EDWARDS AFB    DRIZZLE   54  50  87 CALM      30.06S
DAGGETT        CLOUDY    55  49  80 SW3       30.06F
29 PALMS N     CLOUDY    56  44  64 NW9       30.09F
NEEDLES        LGT RAIN  60  49  66 N7        30.01F

$$

REGIONAL REPORTS

CITY           SKY/WX    TMP DP  RH WIND       PRES   REMARKS
SANTA BARBARA  PTCLDY    55  53  93 CALM      30.01R
SANDBERG       LGT RAIN  50  40  68 E6        30.11F
MT. WILSON       N/A     41  36  81 CALM        N/A
LAS VEGAS NV   CLOUDY    57  43  59 S8        30.02F
PHOENIX AZ     LGT RAIN  59  57  93 E3        29.97F
TIJUANA        CLOUDY    59  52  77 CALM      30.01F

$$

OFFSHORE ISLANDS

CITY           SKY/WX    TMP DP  RH WIND       PRES   REMARKS
CATALINA ARPT  CLOUDY    61  41  47 E7        30.03F
SAN NICOLAS IS CLOUDY   N/A N/A N/A S3        30.00F

$$

MARINE AND OFFSHORE BUOY REPORTS

STATION/POSITION SKY/WX   TEMP    WIND        PRES    SWELL
                          AIR SEA DIR/SP/G            HT/PER/DIR
                          (F)     (DEG/KT/KT) (MB)    (FT/S/D)
TANNER BANKS               61 62  330/  6/  8 1016.1F   7/310/19
S CLEMENTE BASIN           64 62  330/  8/ 10 1015.1F   3/280/12
SAN NICOLAS IS.               62                N/A     5/300/18
SO. S. ROSA ISLA           60 60  320/ 12/ 12 1015.5F   7/17
W. S. BARBARA CH           60 60  310/ 14/ 16 1015.3F   5/310/17
S. MONICA BASIN            62 62  240/  2/  4 1016.3F   2/250/12
S PEDRO CHANNEL               62                N/A     2/260/11
DANA POINT                    62                N/A     2/260/12
CMP PENDLETON NS              62                N/A     2/240/12
OCEANSIDE OFFSHR              62                N/A     2/240/13
TORREY PINES OTR              62                N/A     2/260/13
LA JOLLA 1                 62 62  360/  5/  6 1015.8R
MISSION BAY BUOY              62                N/A     2/250/13
SAN DIEGO BAY                 62              1015.8F
POINT LOMA SOUTH              62                N/A     3/250/13

$$



USA.gov is the U.S. government's official web portal to all federal, state and local government web resources and services.